Regional Weather Roundup
Issued by NWS State College, PA

Home | Current Version | Previous Version | Graphics & Text | Print | Product List | Glossary Off
Versions: 1 2 3 4 5 6 7 8 9 10 11 12 13 14 15 16 17 18 19 20 21 22 23 24 25 26 27 28 29 30 31 32 33 34 35 36 37 38 39 40 41 42 43 44 45 46 47 48 49 50

000
ASUS41 KCTP 131210
RWRCTP

REGIONAL WEATHER ROUNDUP
NATIONAL WEATHER SERVICE STATE COLLEGE PA
700 AM EST WED DEC 13 2017

Note: "fair" indicates few or no clouds below 12,000 feet with no
significant weather and/or obstructions to visibility.

* = STATION THAT DOES NOT REPORT PRECIPITATION /E.G. RAIN...SNOW...ETC/
    THUNDER OR FOG.

PAZ002>004-007>009-013>016-020>023-029>032-131300-
WESTERN PENNSYLVANIA

CITY           SKY/WX    TMP DP  RH WIND       PRES   REMARKS
ERIE           CLOUDY    20  10  65 W16G24    29.77R WCI   6
MEADVILLE      CLOUDY    14   6  70 W13G21    29.75S WCI   0
FRANKLIN*      FLURRIES  13   8  81 W9        29.74R WCI   1
NEW CASTLE     FLURRIES  14  10  84 W9        29.82S WCI   2
BEAVER COUNTY  CLOUDY    14   7  73 W10G18    29.81  WCI   1
BUTLER*        FLURRIES  12   7  80 W9        29.81R WCI   0
PITTSBURGH INT CLOUDY    17   4  56 W12G20    29.82R WCI   4
PITTSBURGH     CLOUDY    14   1  56 W14G24    29.81R WCI  -1
INDIANA*       CLOUDY    14   9  79 W13G24    29.80R WCI   0
LATROBE        PTCLDY    14   3  62 W17       29.83R WCI  -3
WASHINGTON CO* PTCLDY    15   4  61 W9        29.88R WCI   3
$$

PAZ004>006-010>012-017>019-024>028-033>037-041-042-045-046-049>053-131300-
CENTRAL PENNSYLVANIA

CITY           SKY/WX    TMP DP  RH WIND       PRES   REMARKS
BRADFORD       LGT SNOW  13   9  84 W15G22    29.59R FOG     WCI  -3
DUBOIS         LGT SNOW  12   7  80 W18G26    29.66R WCI  -6
CLEARFIELD     LGT SNOW  14   8  77 W13G20    29.67R WCI   0
JOHNSTOWN      CLOUDY    10   3  73 W13       29.67R WCI  -5
ALTOONA        CLOUDY    16   6  65 W20       29.72R WCI  -1
STATE COLLEGE  CLOUDY    16   7  67 W17G29    29.67R WCI   0
WILLIAMSPORT   MOCLDY    21   7  54 W15G25    29.62R WCI   8
SELINSGROVE    PTCLDY    20   6  55 W14G23    29.66R WCI   7
FT INDIANTOWN  MOCLDY    20   4  48 W23G36    29.64S WCI   4
CAPITAL CITY   CLOUDY    22   2  42 W18G29    29.70R WCI   7
HARRISBURG     MOCLDY    22   8  55 W25G33    29.69R WCI   5
YORK           PTCLDY    19   5  54 W12G26    29.71R WCI   7
$$

PAZ038>040-043-044-047-048-054-055-060>062-067>071-131300-
EASTERN PENNSYLVANIA

CITY           SKY/WX    TMP DP  RH WIND       PRES   REMARKS
SCRANTON       LGT SNOW  16  12  84 W13       29.52S FOG     WCI   2
MOUNT POCONO   LGT SNOW  10   6  84 W22G28    29.41R FOG     WCI -10
ALLENTOWN      MOCLDY    20   5  52 W14G26    29.58S WCI   7
QUAKERTOWN*    SUNNY     19   5  53 W12G20    29.59S WCI   7
READING        CLOUDY    21   8  57 W15G24    29.64R WCI   8
LANCASTER        N/A     21   6  52 W21G29    29.67R WCI   5
COATESVILLE    MOSUNNY   19   5  53 W22G30    29.65S WCI   3
POTTSTOWN      MOCLDY    20   5  52 W14G28    29.65R WCI   7
BLUE BELL      CLOUDY    21   5  49 W10G23    29.64S WCI  10
DOYLESTOWN     CLEAR     19   4  51 W17G25    29.59R WCI   4
WILLOW GROVE   NOT AVBL
NORTH PHILA    PTCLDY    22   4  46 W20G29    29.65R WCI   7
PHILADELPHIA   PTCLDY    22   3  44 W20G30    29.68R WCI   7
$$




USA.gov is the U.S. government's official web portal to all federal, state and local government web resources and services.